sat.trackr.live / text

‹ back to catalog

STARLINK-32711

NORAD 62435 · 2024-251D

PAYLOAD ACTIVE UNKNOWN

§ Identity

Operator
Country
US
Launch date
2024-12-29
Launch site
AFWTR
Launch vehicle
Mass (kg)
RCS (m²)

Purposes: comms

External: N2YO · Heavens-Above · Gunter

§ Orbital elements

Epoch: 2026-09-21T20:08:41.332992Z

Period
93.85 min
Inclination
53.1585°
Eccentricity
0.0001359
Mean motion
15.34402385 rev/d
Perigee alt
461.8 km
Apogee alt
463.6 km
Semi-major
6,840.8 km
B*
6.0485e-4
RAAN
143.2278°
Arg perigee
87.9971°
Mean anomaly
272.1187°
Rev number
9,799

§ Raw data

STARLINK-327111 62435U 24251D   26264.83936728  .00020116  00000+0  60485-3 0  99952 62435  53.1585 143.2278 0001359  87.9971 272.1187 15.34402385 97992

JSON: /api/v1/satellites/62435 · /tle

For live sub-satellite position, see the globe view (requires WebGL).

§ Visibility from observer

Set your observer location to see the next 7 days of passes ≥ 10°. The values pass through the URL so the page stays shareable.

No JS? Fill the form by hand. The geolocation button needs JavaScript.